Hourly Data Report for November 30, 2017

All times are specified in Local Standard Time (LST). Add 1 hour to adjust for Daylight Saving Time where and when it is observed.

GREENWOOD A
NOVA SCOTIA

44°59'00.000" N
64°55'00.000" W
28.00 m
8202000
71397
YZX

Download Data

Hourly Data (November 2017)
Hourly Data Report for November 30, 2017
Temp Definition
°C
Dew Point Temp Definition
°C
Rel Hum Definition
%
Wind Dir Definition
10's deg

Wind Spd Definition
km/h
Visibility Definition
km
Stn Press Definition
kPa
Hmdx Definition


Wind Chill Definition


Weather Definition


TIME
00:00 1.5 -2.6 74 32 28 24.1 101.64     Mostly Cloudy
01:00 0.2 -3.5 76 34 28 24.1 101.75     Mainly Clear
02:00 -0.2 -4.6 72 36 17 24.1 101.85   -5 Mainly Clear
03:00 -0.6 -4.2 77 34 22 24.1 101.96   -6 Mainly Clear
04:00 -1.3 -5.8 71 35 13 24.1 102.02   -6 Mainly Clear
05:00 -1.6 -7.2 66 34 17 24.1 102.11   -7 Mainly Clear
06:00 -1.8 -7.1 67 31 19 24.1 102.19   -7 Mainly Clear
07:00 -1.8 -7.8 64 35 7 24.1 102.29   -4 Mainly Clear
08:00 -2.8 -9.3 61 30 4 24.1 102.32   -4 Mainly Clear
09:00 -1.5 -5.7 73   0 24.1 102.34     Clear
10:00 0.0 -4.0 74   0 24.1 102.33     Clear
11:00 0.8 -3.3 74 17 6 24.1 102.32     Clear
12:00 2.1 -3.6 66 16 7 24.1 102.23     Mainly Clear
13:00 3.7 -5.6 51 20 4 24.1 102.18     Mainly Clear
14:00 3.4 -5.3 53   0 24.1 102.15     Mainly Clear
15:00
16:00 3.1 -4.7 57   0 24.1 102.09     Mostly Cloudy
17:00 1.8 -3.7 67   0 24.1 102.09     Mainly Clear
18:00 -0.6 -3.9 78   0 24.1 102.11     Mostly Cloudy
19:00 -1.9 -5.0 79 2 6 24.1 102.11   -4 Mostly Cloudy
20:00 -1.2 -3.8 82 34 4 24.1 102.10   -3 Mostly Cloudy
21:00 0.5 -4.0 72 18 9 24.1 102.08     Cloudy
22:00 0.5 -4.3 70 33 4 24.1 102.02     Cloudy
23:00 -0.2 -3.4 79 30 4 24.1 101.93   -1 Mostly Cloudy

Notes on Data Quality.

Legend

  • E = Estimated
  • M = Missing
  • NA = Not Available
  • ‡ = Partner data that is not subject to review by the National Climate Archives
Date modified: